Weather History for Tri-Cities, TN

Change the Weather History Date:

Sunday, October 2, 2011

  Actual Average Record
Temperature  
Mean Temperature 52 °F 61 °F  
Max Temperature 60 °F 73 °F 85 °F (1986)
Min Temperature 43 °F 48 °F 29 °F (1946)
Degree Days  
Heating Degree Days 13 5  
Month to date heating degree days 29 10  
Since 1 July heating degree days 45 63  
Cooling Degree Days 0 1  
Month to date cooling degree days 0 2  
Year to date cooling degree days 1329 970  
Growing Degree Days 1 (Base 50)    
Moisture  
Dew Point 35 °F    
Average Humidity 57    
Maximum Humidity 82    
Minimum Humidity 31    
Precipitation  
Precipitation 0.01 in 0.07 in 1.22 in (1977)
Month to date precipitation 0.01 0.14  
Year to date precipitation 36.15 32.58  
Snow  
Snow 0.00 in 0.00 in - ()
Month to date snowfall 0.0 0.0  
Since 1 July snowfall 0.0 0.0  
Since 1 September snowfall 0.0 0.0  
Snow Depth 0.00 in    
Sea Level Pressure  
Sea Level Pressure 30.07 in    
Wind  
Wind Speed 7 mph (WNW)    
Max Wind Speed 16 mph    
Max Gust Speed 26 mph    
Visibility 9 miles    
Events Rain    
T = Trace of Precipitation, MM = Missing Value Source: NWS Daily Summary

Daily Weather History Graph

Daily Weather History Graph

Search for Another Location

Airport:

Trip Planner

Search our weather history database for the weather conditions in past years. The results will help you decide how hot, cold, wet, or windy it might be!

Date:

Astronomy

Oct. 02, 2011 Rise Set
Actual Time 7:25 AM EDT 7:12 PM EDT
Civil Twilight 6:59 AM EDT 7:37 PM EDT
Nautical Twilight 6:29 AM EDT 8:07 PM EDT
Astronomical Twilight 5:59 AM EDT 8:37 PM EDT
Moon 1:21 PM EDT (10/2) 11:18 PM EDT (10/2)
Length of Visible Light 12h 38m
Length of Day
11h 46m
Waxing Crescent, 34% of the Moon is Illuminated
Oct 2
Waxing Crescent
Oct 3
First Quarter
Oct 11
Full
Oct 19
Last Quarter
Oct 26
New

Hourly Weather History & Observations

Time (EDT) Temp. Windchill Dew Point Humidity Pressure Visibility Wind Dir Wind Speed Gust Speed Precip Events Conditions
12:08 AM 46.4 °F 41.9 °F 41.0 °F 81% 30.11 in 5.0 mi West 9.2 mph - N/A   Haze
12:20 AM 46.4 °F 42.9 °F 41.0 °F 81% 30.10 in 5.0 mi West 6.9 mph - N/A   Haze
12:53 AM 46.0 °F 43.1 °F 42.1 °F 86% 30.07 in 4.0 mi West 5.8 mph - 0.00 in Rain Light Rain
1:53 AM 46.0 °F 42.5 °F 42.1 °F 86% 30.06 in 4.0 mi WNW 6.9 mph - 0.01 in   Overcast
2:16 AM 46.4 °F 44.3 °F 42.8 °F 87% 30.08 in 6.0 mi WNW 4.6 mph - N/A   Overcast
2:53 AM 46.0 °F 41.4 °F 39.9 °F 79% 30.06 in 10.0 mi NNW 9.2 mph - 0.00 in   Overcast
3:38 AM 46.4 °F 44.3 °F 39.2 °F 76% 30.08 in 10.0 mi NNW 4.6 mph - N/A   Overcast
3:53 AM 46.0 °F 44.8 °F 39.0 °F 76% 30.06 in 10.0 mi NW 3.5 mph - N/A   Overcast
4:53 AM 46.0 °F 41.9 °F 37.0 °F 71% 30.06 in 10.0 mi WNW 8.1 mph - N/A   Overcast
5:53 AM 46.0 °F 43.1 °F 36.0 °F 68% 30.06 in 10.0 mi WNW 5.8 mph - N/A   Overcast
6:53 AM 45.0 °F 43.5 °F 37.0 °F 74% 30.08 in 10.0 mi West 3.5 mph - N/A   Overcast
7:53 AM 45.0 °F 43.5 °F 36.0 °F 71% 30.09 in 10.0 mi WSW 3.5 mph - N/A   Mostly Cloudy
8:53 AM 46.0 °F 42.5 °F 35.1 °F 66% 30.09 in 10.0 mi West 6.9 mph - N/A   Mostly Cloudy
9:53 AM 48.9 °F - 35.1 °F 59% 30.09 in 10.0 mi NNW 8.1 mph - N/A   Mostly Cloudy
10:53 AM 48.9 °F - 32.0 °F 52% 30.11 in 10.0 mi NNW 12.7 mph 18.4 mph N/A   Mostly Cloudy
11:53 AM 53.1 °F - 30.9 °F 43% 30.10 in 10.0 mi North 10.4 mph 17.3 mph N/A   Partly Cloudy
12:53 PM 53.1 °F - 30.0 °F 41% 30.08 in 10.0 mi NW 11.5 mph 20.7 mph N/A   Scattered Clouds
1:53 PM 55.9 °F - 28.9 °F 36% 30.06 in 10.0 mi WNW 13.8 mph 17.3 mph N/A   Partly Cloudy
2:53 PM 57.9 °F - 28.9 °F 33% 30.04 in 10.0 mi NW 8.1 mph 18.4 mph N/A   Partly Cloudy
3:53 PM 59.0 °F - 28.9 °F 32% 30.03 in 10.0 mi WNW 11.5 mph 18.4 mph N/A   Scattered Clouds
4:53 PM 59.0 °F - 28.9 °F 32% 30.02 in 10.0 mi WNW 6.9 mph 18.4 mph N/A   Scattered Clouds
5:53 PM 57.9 °F - 28.0 °F 32% 30.03 in 10.0 mi NW 10.4 mph - N/A   Scattered Clouds
6:53 PM 55.9 °F - 30.0 °F 37% 30.04 in 10.0 mi WNW 9.2 mph - N/A   Partly Cloudy
7:53 PM 51.1 °F - 30.9 °F 46% 30.05 in 10.0 mi West 6.9 mph - N/A   Partly Cloudy
8:53 PM 50.0 °F - 32.0 °F 50% 30.07 in 10.0 mi West 5.8 mph - N/A   Clear
9:53 PM 44.1 °F 40.1 °F 33.1 °F 65% 30.08 in 10.0 mi SW 6.9 mph - N/A   Clear
10:53 PM 43.0 °F - 34.0 °F 71% 30.09 in 10.0 mi Calm Calm - N/A   Clear
11:53 PM 43.0 °F - 37.0 °F 80% 30.08 in 10.0 mi Calm Calm - N/A   Mostly Cloudy